Stations météo

Publicité
Pau, France (7610): Température de l'air & dewpoint: 17.01.2017 01:00:00 - 23.01.2017 01:00:00 (CET)Pau, France (7610): Température de l'air 5cm: 17.01.2017 01:00:00 - 23.01.2017 01:00:00 (CET)Pau, France (7610): Température de l'air -20cm & Température de l'air -100cm: 17.01.2017 01:00:00 - 23.01.2017 01:00:00 (CET)Pau, France (7610): Vitesse du vent & gusts: 17.01.2017 01:00:00 - 23.01.2017 01:00:00 (CET)Pau, France (7610): Direction du vent: 17.01.2017 01:00:00 - 23.01.2017 01:00:00 (CET)Pau, France (7610): reduced air pressure: 17.01.2017 01:00:00 - 23.01.2017 01:00:00 (CET)Pau, France (7610): visibility: 17.01.2017 01:00:00 - 23.01.2017 01:00:00 (CET)Pau, France (7610): Ensoleillement: 17.01.2017 01:00:00 - 23.01.2017 01:00:00 (CET)Pau, France (7610): Quantités de précipitations: 17.01.2017 01:00:00 - 23.01.2017 01:00:00 (CET)
Date & Time tt [°C] td [°C] tt 5cm [°C] tt -20cm [°C] tt -100cm [°C] ff [km/h] ff [knt] fx [km/h] fx [knt] dd ppp [hPa] vv [km] sd [min] rr [mm]
23.01.2017 01:00:00 0,1 -0,6 -3,7 5,4 9,2 7 4 10 5 ESE 1023,0 2,0 0 0,0
23.01.2017 00:00:00 -0,6 -1,4 -4,2 5,4 9,2 6 4 9 5 SE 1023,3 1,0 0 0,0
22.01.2017 23:00:00 0,1 -0,8 -2,6 5,4 9,2 4 2 10 5 E 1023,0 1,3 0 0,0
22.01.2017 22:00:00 0,8 -0,1 -2,0 5,4 9,2 5 3 6 4 E 1022,7 1,8 0 0,0
22.01.2017 21:00:00 1,9 0,7 -2,0 5,4 9,2 3 2 5 3 SW 1022,6 3,6 0 0,0
22.01.2017 20:00:00 2,7 1,1 -0,5 5,3 9,2 3 2 8 5 NNE 1022,4 3,3 0 0,0
22.01.2017 19:00:00 4,3 2,0 1,6 5,3 9,2 5 3 6 3 W 1021,9 10 0 0,0
22.01.2017 18:00:00 4,9 2,4 3,3 5,2 9,2 4 2 8 5 WNW 1021,7 11 0 0,0
22.01.2017 17:00:00 5,9 3,1 5,9 5,2 9,3 4 2 11 6 NNW 1021,6 13 0 0,0
22.01.2017 16:00:00 6,3 2,9 7,2 5,2 9,2 7 4 11 6 N 1021,1 13 8 0,0
22.01.2017 15:00:00 5,9 3,2 6,9 5,2 9,2 7 4 14 7 N 1020,8 10 0 0,0
22.01.2017 14:00:00 6,1 3,3 7,4 5,2 9,3 11 6 16 9 NW 1021,0 12 5 0,0
22.01.2017 13:00:00 5,6 2,6 6,7 5,2 9,2 5 3 15 8 SW 1021,7 10 1 0,0
22.01.2017 12:00:00 4,2 1,2 3,3 5,2 9,3 6 4 10 5 SE 1022,8 13 5 0,0
22.01.2017 11:00:00 1,9 -0,5 0,3 5,3 9,3 5 3 19 10 SE 1022,8 15 0 0,0
22.01.2017 10:00:00 -0,1 -1,7 -1,5 5,3 9,3 4 2 8 4 E 1022,3 15 0 0,0
22.01.2017 09:00:00 -0,9 -2,3 -3,8 5,4 9,3 8 4 10 5 ESE 1022,0 14 0 0,0
22.01.2017 08:00:00 -2,0 -3,3 -4,5 5,4 9,3 7 4 9 5 ESE 1021,6 11 0 0,0
22.01.2017 07:00:00 -2,3 -3,7 -5,7 5,4 9,3 5 3 7 4 SE 1021,6 10 0 0,0
22.01.2017 06:00:00 -2,1 -3,2 -4,8 5,5 9,3 3 2 5 3 SE 1021,5 10 0 0,0
22.01.2017 05:00:00 -2,0 -3,1 -4,9 5,5 9,3 0 0 7 4 N 1021,6 10 0 0,0
22.01.2017 04:00:00 -2,1 -3,5 -5,0 5,5 9,3 5 3 7 4 ESE 1021,5 9 0 0,0
22.01.2017 03:00:00 -1,9 -3,3 -5,1 5,5 9,3 4 2 5 3 SSE 1021,5 7 0 0,0
22.01.2017 02:00:00 -1,8 -3,5 -4,8 5,6 9,3 6 3 7 4 SE 1021,9 7 0 0,0
22.01.2017 01:00:00 -1,6 -2,9 -5,4 5,6 9,3 3 2 5 3 E 1022,4 8 0 0,0
22.01.2017 00:00:00 -1,2 -2,6 -4,3 5,6 9,3 4 2 6 4 E 1022,7 7 0 0,0
21.01.2017 23:00:00 -0,7 -2,3 -4,0 5,6 9,4 4 2 5 3 ESE 1022,6 8 0 0,0
21.01.2017 22:00:00 0,5 -1,7 -3,4 5,5 9,4 3 2 10 5 SE 1022,2 11 0 0,0
21.01.2017 21:00:00 1,0 -1,2 -1,9 5,5 9,4 4 2 7 4 E 1022,3 10 0 0,0
21.01.2017 20:00:00 2,1 -1,0 -1,9 5,4 9,4 5 3 6 4 ENE 1022,1 13 0 0,0
21.01.2017 19:00:00 4,4 -0,8 -0,5 5,4 9,4 3 2 6 3 SSE 1021,8 29 0 0,0
21.01.2017 18:00:00 6,7 0,1 2,3 5,2 9,4 4 2 16 9 ENE 1021,5 36 3 0,0
21.01.2017 17:00:00 8,7 0,9 8,8 5,1 9,4 8 4 14 8 N 1020,7 50 53 0,0
21.01.2017 16:00:00 10,3 -0,2 15,0 5,1 9,4 6 3 9 5 NW 1020,3 44 60 0,0
21.01.2017 15:00:00 10,0 -0,5 16,4 5,1 9,4 4 2 11 6 NW 1020,4 36 60 0,0
21.01.2017 14:00:00 10,2 -1,2 17,0 5,0 9,4 3 2 8 5 SW 1021,0 19 60 0,0
21.01.2017 13:00:00 8,3 -0,2 13,2 5,1 9,4 0 0 8 4 N 1021,7 38 60 0,0
21.01.2017 12:00:00 5,9 -0,6 10,9 5,1 9,4 4 2 6 4 ENE 1022,6 43 60 0,0
21.01.2017 11:00:00 4,0 -1,4 6,0 5,2 9,4 3 2 10 5 SSE 1022,7 38 60 0,0
21.01.2017 10:00:00 0,6 -2,1 -3,1 5,2 9,4 0 0 11 6 N 1022,7 35 60 0,0
21.01.2017 09:00:00 -2,6 -4,3 -7,9 5,2 9,4 10 5 11 6 ESE 1022,9 26 7 0,0
21.01.2017 08:00:00 -3,8 -5,3 -8,3 5,3 9,4 7 4 11 6 ESE 1022,8 16 0 0,0
21.01.2017 07:00:00 -3,9 -5,4 -8,1 5,4 9,4 6 4 9 5 SE 1022,9 12 0 0,0
21.01.2017 06:00:00 -4,2 -5,6 -8,7 5,4 9,5 6 3 7 4 SSE 1023,2 7 0 0,0
21.01.2017 05:00:00 -4,1 -5,4 -8,0 5,4 9,5 0 0 8 4 N 1023,0 6 0 0,0
21.01.2017 04:00:00 -3,7 -5,0 -8,1 5,5 9,5 6 3 9 5 E 1023,7 3,5 0 0,0
21.01.2017 03:00:00 -3,4 -4,7 -7,7 5,5 9,5 2 1 6 3 ESE 1023,5 4,3 0 0,0
21.01.2017 02:00:00 -3,2 -5,1 -7,5 5,5 9,5 0 0 5 3 N 1023,6 3,4 0 0,0
21.01.2017 01:00:00 -2,5 -4,1 -7,1 5,6 9,5 0 0 10 6 N 1023,9 4,2 0 0,0
21.01.2017 00:00:00 -1,7 -3,1 -5,5 5,6 9,5 6 3 11 6 ESE 1024,1 4,6 0 0,0
20.01.2017 23:00:00 -1,8 -2,9 -6,8 5,6 9,5 4 2 6 4 E 1024,4 5 0 0,0
20.01.2017 22:00:00 -1,6 -2,9 -5,8 5,5 9,5 4 2 6 4 ESE 1024,6 3,7 0 0,0
20.01.2017 21:00:00 -1,3 -2,7 -4,4 5,5 9,5 6 3 8 5 E 1024,6 3,6 0 0,0
20.01.2017 20:00:00 -0,4 -2,6 -4,3 5,5 9,5 3 2 4 2 ENE 1024,6 6 0 0,0
20.01.2017 19:00:00 1,4 -2,4 -4,0 5,4 9,5 0 0 8 4 N 1024,0 12 0 0,0
20.01.2017 18:00:00 3,7 -1,3 -0,4 5,4 9,5 5 3 11 6 E 1023,5 13 28 0,0
20.01.2017 17:00:00 6,2 -0,1 8,4 5,2 9,5 5 3 10 5 NNW 1023,0 10 60 0,0
20.01.2017 16:00:00 6,8 -0,9 12,3 5,2 9,5 5 3 10 5 W 1022,9 16 60 0,0
20.01.2017 15:00:00 7,0 -0,9 14,0 5,2 9,5 4 2 9 5 NW 1023,1 17 60 0,0
20.01.2017 14:00:00 6,2 -1,5 10,9 5,2 9,5 2 1 6 4 SSE 1023,9 9 60 0,0
20.01.2017 13:00:00 4,2 -1,6 9,9 5,3 9,5 3 2 10 6 S 1024,9 10 60 0,0
20.01.2017 12:00:00 2,0 -2,0 6,0 5,3 9,5 3 2 8 4 ESE 1025,7 7 60 0,0
20.01.2017 11:00:00 -2,2 -3,6 -2,9 5,4 9,5 3 1 6 3 WNW 1026,5 5 31 0,0
20.01.2017 10:00:00 -4,1 -5,4 -6,3 5,4 9,5 3 1 6 3 N 1026,3 4,6 19 0,0
20.01.2017 09:00:00 -5,2 -6,7 -8,3 5,5 9,5 5 3 8 4 SSE 1026,0 4,4 0 0,0
20.01.2017 08:00:00 -5,6 -7,0 -8,4 5,5 9,5 2 1 8 5 NNE 1025,9 4,0 0 0,0
20.01.2017 07:00:00 -5,0 -6,4 -8,4 5,6 9,5 4 2 7 4 SSE 1025,8 4,8 0 0,0
20.01.2017 06:00:00 -5,3 -6,5 -8,6 5,6 9,5 3 2 6 3 SE 1026,2 4,6 0 0,0
20.01.2017 05:00:00 -5,2 -6,7 -8,5 5,7 9,5 5 3 7 4 ESE 1026,6 4,6 0 0,0
20.01.2017 04:00:00 -4,6 -5,8 -8,1 5,7 9,5 3 2 5 3 ESE 1026,8 6 0 0,0
20.01.2017 03:00:00 -4,5 -5,7 -7,9 5,8 9,6 3 2 6 3 E 1027,1 5 0 0,0
20.01.2017 02:00:00 -4,5 -5,9 -7,8 5,9 9,6 3 1 4 2 E 1026,9 6 0 0,0
20.01.2017 01:00:00 -4,1 -5,9 -8,2 5,9 9,6 0 0 2 1 N 1027,2 7 0 0,0
20.01.2017 00:00:00 -4,4 -6,4 -8,0 5,9 9,6 0 0 5 3 N 1027,7 7 0 0,0
19.01.2017 23:00:00 -3,2 -5,8 -7,3 5,9 9,6 4 2 7 4 ESE 1027,7 9 0 0,0
19.01.2017 22:00:00 -2,5 -5,3 -6,4 5,9 9,6 7 4 13 7 ESE 1027,9 9 0 0,0
19.01.2017 21:00:00 -2,0 -5,2 -5,5 5,9 9,6 7 4 13 7 E 1027,8 10 0 0,0
19.01.2017 20:00:00 -1,5 -4,7 -5,0 5,9 9,6 9 5 14 8 E 1027,6 14 0 0,0
19.01.2017 19:00:00 -1,4 -4,2 -4,7 5,9 9,6 4 2 8 4 E 1027,5 11 0 0,0
19.01.2017 18:00:00 0,3 -4,5 -2,7 5,9 9,6 3 2 8 4 SSE 1027,0 19 5 0,0
19.01.2017 17:00:00 1,6 -4,7 0,5 5,8 9,6 6 3 14 8 SSE 1026,8 20 43 0,0
19.01.2017 16:00:00 3,5 -4,0 8,2 5,8 9,6 4 2 9 5 ENE 1026,6 24 60 0,0
19.01.2017 15:00:00 3,1 -4,4 3,9 5,8 9,6 5 3 13 7 SE 1026,6 15 53 0,0
19.01.2017 14:00:00 2,7 -4,3 7,9 5,8 9,6 6 3 18 10 S 1026,9 20 60 0,0
19.01.2017 13:00:00 1,6 -4,5 0,8 5,8 9,7 7 4 15 8 S 1027,3 29 35 0,0
19.01.2017 12:00:00 0,1 -5,3 1,6 5,8 9,7 7 4 10 5 S 1028,2 20 0 0,0
19.01.2017 11:00:00 -0,4 -5,4 0,0 5,9 9,7 5 3 16 9 S 1028,4 20 0 0,0
19.01.2017 10:00:00 -0,9 -5,3 -1,4 5,9 9,7 5 3 8 4 S 1027,9 18 0 0,0
19.01.2017 09:00:00 -1,3 -5,3 -1,8 5,9 9,7 4 2 6 3 SSE 1027,3 15 0 0,0
19.01.2017 08:00:00 -1,6 -5,6 -2,1 5,9 9,7 2 1 5 3 SSE 1027,2 15 0 0,0
19.01.2017 07:00:00 -1,7 -5,9 -2,1 5,9 9,7 3 1 9 5 E 1027,1 17 0 0,0
19.01.2017 06:00:00 -1,7 -6,1 -2,1 6,0 9,7 6 3 9 5 SE 1027,2 19 0 0,0
19.01.2017 05:00:00 -1,8 -6,7 -2,1 6,0 9,7 6 3 9 5 SE 1027,4 19 0 0,0
19.01.2017 04:00:00 -1,7 -7,0 -2,1 6,1 9,7 6 3 9 5 ESE 1027,7 19 0 0,0
19.01.2017 03:00:00 -1,8 -7,7 -2,4 6,1 9,7 6 3 9 5 ESE 1028,1 23 0 0,0
19.01.2017 02:00:00 -1,8 -7,7 -2,5 6,1 9,7 4 2 11 6 SSW 1028,2 25 0 0,0
19.01.2017 01:00:00 -2,0 -7,5 -2,6 6,1 9,7 0 0 11 6 N 1028,3 26 0 0,0
19.01.2017 00:00:00 -1,7 -7,6 -2,3 6,2 9,7 8 5 11 6 SSW 1028,3 23 0 0,0
18.01.2017 23:00:00 -1,6 -7,7 -2,5 6,2 9,7 4 2 6 4 W 1028,3 21 0 0,0
18.01.2017 22:00:00 -1,7 -6,8 -2,5 6,2 9,7 3 1 6 3 N 1028,4 22 0 0,0
18.01.2017 21:00:00 -1,5 -7,2 -2,1 6,2 9,7 0 0 5 3 N 1028,4 23 0 0,0
18.01.2017 20:00:00 -1,5 -7,2 -1,9 6,2 9,8 0 0 4 2 N 1028,4 23 0 0,0
18.01.2017 19:00:00 -1,5 -8,1 -1,8 6,2 9,8 2 1 9 5 NW 1028,2 25 0 0,0
18.01.2017 18:00:00 -1,3 -7,9 -1,6 6,2 9,7 2 1 12 6 NNE 1027,7 27 0 0,0
18.01.2017 17:00:00 -1,2 -7,8 -0,6 6,2 9,8 2 1 5 3 N 1027,4 25 0 0,0
18.01.2017 16:00:00 -1,1 -7,5 -0,2 6,2 9,8 2 1 12 6 NNW 1027,4 22 0 0,0
18.01.2017 15:00:00 -1,1 -7,3 0,6 6,2 9,8 10 5 15 8 NW 1027,1 24 0 0,0
18.01.2017 14:00:00 -0,8 -7,0 2,6 6,2 9,8 8 4 17 9 W 1026,9 24 40 0,0
18.01.2017 13:00:00 -0,9 -5,5 1,9 6,2 9,8 7 4 17 9 W 1027,3 12 52 0,0
18.01.2017 12:00:00 -1,8 -6,0 0,7 6,3 9,8 6 3 12 6 W 1027,9 18 18 0,0
18.01.2017 11:00:00 -3,0 -6,5 -2,4 6,4 9,8 0 0 5 3 N 1028,5 18 0 0,0
18.01.2017 10:00:00 -3,5 -6,6 -4,0 6,4 9,8 3 2 6 4 N 1028,4 18 0 0,0
18.01.2017 09:00:00 -4,1 -5,9 -6,2 6,5 9,8 4 2 6 4 N 1028,1 17 0 0,0
18.01.2017 08:00:00 -4,5 -6,5 -5,9 6,6 9,8 4 2 6 3 NW 1027,4 16 0 0,0
18.01.2017 07:00:00 -3,9 -6,2 -5,0 6,6 9,8 0 0 11 6 N 1027,2 17 0 0,0
18.01.2017 06:00:00 -3,3 -5,8 -3,7 6,7 9,8 5 3 10 5 NNW 1027,2 19 0 0,0
18.01.2017 05:00:00 -3,4 -5,9 -4,2 6,8 9,8 3 2 10 5 N 1027,3 19 0 0,0
18.01.2017 04:00:00 -3,4 -5,6 -5,8 6,8 9,8 7 4 9 5 N 1027,6 20 0 0,0
18.01.2017 03:00:00 -4,5 -6,0 -8,9 6,9 9,8 3 2 6 3 WNW 1027,8 19 0 0,0
18.01.2017 02:00:00 -4,6 -7,0 -8,8 7,0 9,8 3 2 6 4 N 1028,0 27 0 0,0
18.01.2017 01:00:00 -3,9 -6,8 -8,5 7,0 9,8 5 3 9 5 W 1028,2 33 0 0,0
18.01.2017 00:00:00 -3,1 -7,3 -7,8 7,1 9,8 6 3 12 7 W 1028,3 36 0 0,0
17.01.2017 23:00:00 -2,1 -7,4 -6,4 7,1 9,8 8 4 16 9 NNW 1028,5 39 0 0,0
17.01.2017 22:00:00 -1,9 -7,0 -5,6 7,2 9,8 8 4 17 9 N 1028,5 38 0 0,0
17.01.2017 21:00:00 -0,8 -6,6 -4,2 7,2 9,8 12 6 18 10 NNE 1028,4 43 0 0,0
17.01.2017 20:00:00 -0,2 -6,6 -2,6 7,2 9,8 10 5 15 8 N 1028,4 46 0 0,0
17.01.2017 19:00:00 0,0 -6,2 -3,2 7,2 9,8 8 4 13 7 N 1028,1 46 0 0,0
17.01.2017 18:00:00 1,3 -6,3 -2,5 7,2 9,8 5 3 13 7 N 1027,5 52 17 0,0
17.01.2017 17:00:00 2,7 -4,8 2,0 7,2 9,8 10 6 20 11 N 1027,3 45 37 0,0
17.01.2017 16:00:00 2,9 -3,5 4,2 7,2 9,8 16 9 27 14 NW 1026,9 37 56 0,0
17.01.2017 15:00:00 2,5 -3,4 7,7 7,2 9,8 15 8 25 14 NW 1027,1 35 60 0,0
17.01.2017 14:00:00 2,0 -3,1 7,2 7,2 9,8 8 5 23 13 W 1027,7 36 60 0,0
17.01.2017 13:00:00 1,4 -4,1 2,4 7,3 9,8 10 6 17 9 WNW 1028,6 37 58 0,0
17.01.2017 12:00:00 -0,1 -4,4 2,8 7,3 9,8 3 2 8 4 SSW 1029,4 21 46 0,0
17.01.2017 11:00:00 0,0 -3,2 6,2 7,4 9,8 2 1 8 4 W 1029,6 19 60 0,0
17.01.2017 10:00:00 -1,1 -2,1 -5,0 7,4 9,8 0 0 4 2 N 1029,1 19 60 0,0
17.01.2017 09:00:00 -3,2 -4,3 -8,8 7,5 9,8 2 1 3 2 NW 1028,6 10 6 0,0
17.01.2017 08:00:00 -2,7 -4,0 -8,1 7,6 9,8 3 2 8 4 NNE 1028,3 20 0 0,0
17.01.2017 07:00:00 -2,4 -4,1 -7,1 7,6 9,9 4 2 8 4 - 1027,7 10 0 0,0
17.01.2017 06:00:00 -1,4 -3,1 -5,7 7,6 9,8 4 2 8 4 ENE 1027,1 10 0 0,0
17.01.2017 05:00:00 -0,2 -2,4 -3,3 7,6 9,8 6 4 11 6 ENE 1027,0 38 0 0,0
17.01.2017 04:00:00 0,1 -2,6 -2,7 7,7 9,8 5 3 18 10 NE 1026,8 10 0 0,0
17.01.2017 03:00:00 1,1 -2,1 0,0 7,6 9,8 11 6 19 10 NE 1026,6 50 0 0,0
17.01.2017 02:00:00 2,7 -0,2 1,7 7,7 9,9 13 7 22 12 NE 1026,3 58 0 0,0
17.01.2017 01:00:00 3,8 0,5 3,3 7,7 9,9 10 6 16 9 NE 1026,1 58 0 0,0

tt = Température de l'air
td = dewpoint
tt 5cm = Température de l'air 5cm
tt -20cm = Température de l'air -20cm
tt -100cm = Température de l'air -100cm
ff = Vitesse du vent
fx = gusts
dd = Direction du vent
ppp = reduced air pressure
vv = visibility
sd = Ensoleillement
rr = Quantités de précipitations

stations d'obs. à proximité